Probability
0 0 0 0 0 0 0 0 0 0 0 0 0 0 0 0 0 0 0 0 0 0 0 0 0 0 0 0 0 0 0 0 0 0 0 0 0 0 0 0 0 0 0 0
0 0 0 0 0 0 0 0 0 0 0 0 0 0 0 0 0 0 0 0 0 0 0 0 0 0 0 0 0 0 0 0 0 0 0 0 0 0 0 0 0 0 0 0
0 0 0 0 0 0 0 0 0 0 0 0 0 0 0 0 0 0 0 0 0 0 0 0 0 0 0 0 0 0 0 0 0 0 0 0 0 0 0 0 0 0 0 0
0 0 0 0 0 0 0 0 0 0 0 0 0 0 0 0 0 0 0 0 0 0 0 0 0 0 0 0 0 0 0 0 0 0 0 0 0 0 0 0 0 0 0 0
0 0 0 0 0 0 0 0 0 0 0 0 0 0 0 0 0 0 0 0 0 0 0 0 0 0 0 0 0 0 0 0 0 0 0 0 0 0 0 0 0 0 0 0
0 0 0 0 0 0 0 0 0 0 0 0 0 0 0 0 0 0 0 0 0 0 0 0 0 0 0 0 0 0 0 0 0 0 0 0 0 0 0 0 0 0 0 0
0 0 0 0 0 0 0 0 0 0 0 0 0 0 0 0 0 0 0 0 0 0 0 0 0 0 0 0 0 0 0 0 0 0 0 0 0 0 0 0 0 0 0 0
0 0 0 0 0 0 0 0 0 0 0 0 0 0 0 0 0 0 0 0 0 0 0 0 0 0 0 0 0 0 0 0 0 0 0 0 0 0 0 0 0 0 0 0
0 0 0 0 0 0 0 0 0 0 0 0 0 0 0 0 0 0 0 0 0 0 0 0 0 0 0 0 0 0 0 0 0 0 0 0 0 0 0 0 0 0 0 0
0 0 0 0 0 0 0 0 0 0 0 0 0 0 0 0 0 0 0 0 0 0 0 0 0 0 0 0 0 0 0 0 0 0 0 0 0 0 0 0 0 0 0 0
0 0 0 0 0 0 0 0 0 0 0 0 0 0 0 0 0 0 0 0 0 0 0 0 0 0 0 0 0 0 0 0 0 0 0 0 0 0 0 0 0 0 0 0
0 0 0 0 0 0 0 0 0 0 0 0 0 0 0 0 0 0 0 0 0 0 0 0 0 0 0 0 0 0 0 0 0 0 0 0 0 0 0 0 0 0 0 0
0 0 0 0 0 0 0 0 0 0 0 0 0 0 0 0 0 0 0 0 0 0 0 0 0 0 0 0 0 0 0 0 0 0 0 0 0 0 0 0 0 0 0 0
0 0 0 0 0 0 0 0 0 0 0 0 0 0 0 0 0 0 0 0 0 0 0 0 0 0 0 0 0 0 0 0 0 0 0 0 0 0 0 0 0 0 0 0
0 0 0 0 0 0 0 0 0 0 0 0 0 0 0 0 0 0 0 0 0 0 0 0 0 0 0 0 0 0 0 0 0 0 0 0 0 0 0 0 0 0 0 0
0 0 0 0 0 0 0 0 0 0 0 0 0 0 0 0 0 0 0 0 0 0 0 0 0 0 0 0 0 0 0 0 0 0 0 0 0 0 0 0 0 0 0 0
0 0 0 0 0 0 0 0 0 0 0 0 0 0 0 0 0 0 0 0 0 0 0 0 0 0 0 0 0 0 0 0 0 0 0 0 0 0 0 0 0 0 0 0
0 0 0 0 0 0 0 0 0 0 0 0 0 0 0 0 0 0 0 0 0 0 0 0 0 0 0 0 0 0 0 0 0 0 0 0 0 0 0 0 0 0 0 0
0 0 0 0 0 0 0 0 0 0 0 0 0 0 0 0 0 0 0 0 0 0 0 0 0 0 0 0 0 0 0 0 0 0 0 0 0 0 0 0 0 0 0 0
0 0 0 0 0 0 0 0 0 0 0 0 0 0 0 0 0 0 0 0 0 0 0 0 0 0 0 0 0 0 0 0 0 0 0 0 0 0 0 0 0 0 0 0
0 0 0 0 0 0 0 0 0 0 0 0 0 0 0 0 0 0 0 0 0 0 0 0 0 0 0 0 0 0 0 0 0 0 0 0 0 0 0 0 0 0 0 0
0 0 0 0 0 0 0 0 0 0 0 0 0 0 0 0 0 0 0 0 0 0 0 0 0 0 0 0 0 0 0 0 0 0 0 0 0 0 0 0 0 0 0 0
0 0 0 0 0 0 0 0 0 0 0 0 0 0 0 0 0 0 0 0 0 0 0 0 0 0 0 0 0 0 0 0 0 0 0 0 0 0 0 0 0 0 0 0
0 0 0 0 0 0 0 0 0 0 0 0 0 0 0 0 0 0 0 0 0 0 0 0 0 0 0 0 0 0 0 0 0 0 0 0 0 0 0 0 0 0 0 0
0 0 0 0 0 0 0 0 0 0 0 0 0 0 0 0 0 0 0 0 0 0 0 0 0 0 0 0 0 0 0 0 0 0 0 0 0 0 0 0 0 0 0 0
0 0 0 0 0 0 0 0 0 0 0 0 0 0 0 0 0 0 0 0 0 0 0 0 0 0 0 0 0 0 0 0 0 0 0 0 0 0 0 0 0 0 0 0
0 0 0 0 0 0 0 0 0 0 0 0 0 0 0 0 0 0 0 0 0 0 0 0 0 0 0 0 0 0 0 0 0 0 0 0 0 0 0 0 0 0 0 0
Height
5568 5563 5558 5554 5551 5547 5544 5544 5543 5543 5544 5548 5552 5559 5567 5577 5586 5596 5605 5613 5621 5629 5635 5641 5646 5651 5654 5658 5660 5662 5663 5663 5663 5662 5661 5659 5656 5653 5649 5644 5639 5633 5627 5620
5567 5562 5557 5554 5551 5549 5547 5547 5547 5547 5550 5553 5558 5564 5572 5580 5589 5597 5605 5612 5619 5626 5632 5637 5642 5646 5649 5652 5654 5655 5656 5656 5656 5655 5653 5650 5647 5643 5638 5633 5627 5621 5615 5608
5567 5563 5559 5557 5554 5552 5551 5551 5551 5552 5556 5559 5564 5570 5577 5584 5591 5598 5605 5611 5618 5624 5629 5634 5638 5641 5644 5646 5648 5650 5650 5650 5648 5646 5644 5641 5637 5633 5628 5622 5616 5609 5602 5595
5568 5566 5562 5562 5558 5556 5555 5555 5556 5558 5561 5565 5570 5575 5581 5587 5594 5600 5605 5611 5617 5622 5627 5631 5634 5637 5640 5642 5643 5643 5643 5642 5640 5638 5635 5632 5627 5622 5617 5611 5604 5597 5590 5582
5569 5567 5566 5565 5563 5561 5561 5562 5563 5565 5567 5570 5575 5580 5586 5591 5596 5601 5606 5611 5616 5620 5624 5628 5631 5633 5635 5636 5637 5636 5635 5634 5632 5629 5626 5622 5617 5612 5606 5600 5593 5585 5577 5569
5571 5569 5569 5569 5568 5567 5568 5568 5569 5571 5574 5577 5580 5585 5590 5594 5598 5603 5607 5611 5615 5619 5622 5625 5627 5629 5630 5630 5630 5629 5628 5626 5623 5620 5616 5612 5607 5601 5595 5589 5581 5573 5565 5556
5571 5571 5571 5572 5571 5572 5574 5574 5575 5576 5579 5581 5585 5589 5592 5595 5599 5603 5606 5610 5613 5616 5619 5621 5622 5623 5623 5623 5623 5622 5620 5617 5614 5611 5607 5602 5597 5591 5584 5577 5570 5562 5554 5544
5572 5572 5575 5573 5573 5575 5576 5576 5577 5579 5581 5584 5587 5590 5592 5595 5599 5602 5605 5608 5610 5613 5614 5616 5617 5617 5617 5617 5616 5614 5612 5609 5606 5602 5597 5592 5586 5580 5573 5566 5558 5550 5541 5531
5572 5574 5574 5574 5574 5576 5576 5578 5579 5581 5583 5585 5587 5589 5592 5595 5598 5600 5602 5605 5607 5609 5610 5611 5611 5611 5611 5610 5608 5606 5604 5600 5596 5592 5587 5581 5575 5569 5561 5554 5546 5538 5528 5518
5570 5572 5572 5573 5574 5576 5577 5578 5579 5581 5583 5584 5587 5589 5591 5593 5596 5598 5600 5602 5603 5605 5605 5606 5606 5606 5605 5603 5601 5598 5595 5591 5587 5583 5577 5571 5564 5557 5550 5542 5534 5524 5515 5504
5568 5570 5572 5573 5574 5575 5576 5578 5579 5581 5582 5584 5586 5588 5590 5592 5594 5596 5597 5599 5600 5601 5601 5601 5600 5599 5598 5596 5593 5590 5587 5582 5578 5572 5567 5560 5553 5546 5538 5529 5520 5510 5500 5488
5567 5569 5570 5572 5573 5574 5576 5577 5579 5580 5582 5583 5585 5587 5589 5590 5592 5593 5595 5596 5596 5597 5596 5596 5594 5593 5591 5588 5585 5582 5577 5573 5568 5562 5556 5550 5542 5534 5525 5516 5506 5494 5482 5470
5565 5566 5568 5570 5571 5573 5574 5576 5578 5579 5581 5582 5584 5585 5587 5588 5590 5591 5592 5592 5592 5592 5591 5590 5588 5586 5583 5580 5577 5573 5568 5563 5558 5552 5546 5539 5532 5524 5515 5504 5491 5478 5466 5452
5562 5564 5566 5568 5569 5571 5573 5574 5576 5578 5579 5581 5582 5584 5585 5586 5587 5588 5588 5588 5587 5586 5585 5583 5581 5578 5575 5572 5568 5563 5559 5554 5548 5542 5535 5528 5520 5512 5503 5493 5481 5467 5451 5435
5560 5561 5563 5565 5567 5569 5571 5572 5574 5576 5578 5579 5580 5581 5582 5583 5584 5584 5584 5583 5582 5580 5578 5576 5573 5570 5567 5563 5559 5554 5549 5544 5538 5532 5525 5517 5508 5499 5489 5477 5465 5451 5437 5421
5557 5559 5561 5563 5565 5567 5568 5570 5572 5574 5575 5576 5577 5578 5579 5580 5580 5579 5578 5577 5575 5573 5571 5568 5565 5562 5559 5555 5550 5545 5540 5534 5528 5521 5514 5505 5496 5486 5474 5462 5448 5434 5419 5405
5555 5556 5558 5560 5562 5564 5566 5568 5569 5571 5572 5573 5574 5574 5575 5575 5574 5573 5572 5570 5568 5566 5563 5561 5558 5554 5550 5546 5541 5536 5531 5525 5518 5510 5502 5493 5483 5472 5460 5446 5432 5417 5402 5388
5552 5554 5556 5558 5559 5561 5563 5564 5566 5567 5568 5569 5569 5570 5569 5569 5568 5567 5565 5563 5561 5558 5556 5553 5549 5546 5541 5537 5532 5527 5521 5514 5507 5499 5490 5480 5469 5457 5444 5430 5416 5402 5388 5375
5548 5550 5552 5554 5556 5557 5559 5560 5561 5562 5563 5564 5564 5564 5563 5563 5561 5560 5558 5556 5553 5551 5548 5545 5541 5537 5533 5528 5523 5518 5511 5504 5496 5487 5477 5466 5454 5441 5428 5414 5400 5386 5374 5365
5545 5547 5548 5550 5552 5553 5555 5556 5557 5557 5558 5558 5558 5558 5557 5555 5554 5552 5550 5548 5546 5543 5540 5537 5533 5529 5525 5520 5514 5508 5501 5493 5485 5475 5464 5452 5439 5426 5412 5398 5385 5374 5364 5357
5541 5543 5544 5546 5547 5549 5550 5551 5551 5552 5552 5552 5552 5551 5550 5548 5547 5545 5543 5541 5539 5536 5533 5529 5525 5521 5516 5511 5505 5498 5490 5482 5472 5462 5450 5438 5425 5411 5397 5384 5373 5364 5357 5351
5537 5538 5540 5541 5542 5543 5544 5545 5545 5546 5545 5545 5545 5544 5542 5541 5540 5538 5536 5534 5531 5528 5525 5521 5517 5513 5508 5502 5495 5488 5479 5470 5459 5448 5436 5423 5410 5396 5383 5371 5362 5355 5350 5347
5532 5533 5535 5536 5537 5538 5538 5539 5539 5539 5539 5538 5538 5537 5536 5535 5533 5531 5530 5527 5524 5521 5518 5514 5509 5504 5499 5492 5485 5476 5467 5457 5446 5434 5421 5408 5395 5382 5371 5362 5354 5349 5345 5344
5527 5528 5529 5530 5531 5532 5532 5533 5533 5533 5533 5532 5532 5531 5530 5528 5527 5525 5522 5520 5517 5514 5510 5506 5501 5495 5489 5482 5474 5465 5455 5444 5432 5420 5407 5394 5381 5370 5361 5354 5348 5344 5343 5342
5522 5523 5524 5525 5526 5526 5526 5527 5527 5527 5526 5526 5525 5524 5523 5522 5520 5518 5516 5513 5510 5506 5502 5497 5492 5485 5478 5471 5462 5452 5442 5430 5419 5406 5394 5381 5370 5361 5354 5348 5344 5342 5342 5343
5516 5517 5518 5519 5520 5520 5520 5520 5521 5520 5520 5519 5519 5518 5516 5515 5513 5511 5509 5506 5502 5498 5494 5488 5482 5475 5467 5459 5450 5439 5428 5417 5405 5393 5381 5370 5361 5354 5349 5345 5343 5343 5343 5344
5509 5510 5511 5512 5513 5513 5514 5514 5514 5514 5513 5513 5512 5511 5510 5508 5506 5504 5501 5498 5494 5490 5484 5478 5472 5464 5456 5447 5437 5427 5416 5404 5392 5380 5370 5362 5355 5350 5346 5344 5343 5344 5345 5347
Wind_Speed
17 17 16 16 13 11 11 9 5 4 8 15 21 27 32 34 34 34 34 33 33 32 31 31 31 30 29 28 28 28 28 28 29 31 33 35 38 41 43 45 47 50 52 55
13 13 14 12 8 5 3 1 4 9 16 20 25 28 31 32 31 31 31 30 29 28 28 28 28 27 26 26 26 26 27 28 29 32 34 37 39 41 44 46 49 51 54 57
11 11 12 12 8 3 1 4 9 15 19 22 25 28 29 28 28 28 27 26 25 25 26 26 25 25 24 24 24 25 26 28 31 33 36 38 40 42 45 48 51 53 56 59
10 10 12 12 10 7 7 10 14 18 21 23 24 26 27 27 26 26 25 24 24 24 23 23 22 22 22 22 23 25 27 30 32 34 36 38 41 44 46 49 52 55 58 61
7 9 9 8 9 8 9 11 15 17 19 22 23 23 24 23 23 23 23 21 21 20 20 19 19 20 21 22 24 27 29 30 32 35 37 40 42 45 48 51 54 57 59 61
4 6 6 6 7 8 10 12 13 14 16 19 19 19 19 19 18 18 18 17 17 17 17 18 19 20 21 23 25 27 29 31 33 36 38 41 43 46 50 53 55 58 59 60
1 2 3 3 4 5 7 8 9 11 12 14 14 14 15 15 15 15 15 15 16 17 18 18 19 20 22 23 25 27 30 32 34 37 39 42 45 48 51 54 56 57 58 61
4 3 1 1 2 3 5 6 7 8 9 10 11 11 11 11 12 13 14 15 15 17 18 18 19 20 22 24 26 28 30 33 35 38 41 44 47 50 52 54 55 56 59 62
8 6 4 3 3 3 3 5 6 7 8 9 10 10 10 11 11 12 13 14 15 16 17 18 19 20 22 24 26 29 31 34 37 40 43 45 48 50 52 53 55 57 61 65
10 9 7 6 5 4 4 5 6 7 8 9 9 10 10 11 12 12 13 14 15 15 16 17 19 21 23 25 27 30 33 36 38 41 44 47 48 50 52 54 56 60 64 68
13 12 11 9 8 7 6 6 7 7 8 8 9 9 10 10 11 11 12 13 14 14 16 18 19 22 24 27 30 32 35 37 40 43 45 47 48 50 52 55 59 64 68 73
15 13 12 10 10 9 8 8 8 9 9 9 9 9 10 10 10 11 11 12 13 15 17 19 21 24 26 29 31 34 36 39 41 43 45 47 48 51 55 59 63 68 73 78
15 14 13 12 11 11 10 10 10 10 9 9 9 9 9 9 9 10 11 13 15 17 19 22 24 26 29 31 33 35 38 40 42 44 45 47 49 52 57 62 68 73 78 82
15 14 14 14 13 12 12 11 11 10 10 10 10 9 9 9 10 11 13 15 17 20 22 24 27 28 30 32 35 37 39 41 42 44 46 48 52 56 60 64 70 76 81 85
14 14 14 14 13 13 13 13 13 11 11 11 11 11 11 11 12 14 16 19 21 23 25 27 28 30 32 34 36 38 40 41 43 45 47 51 55 60 64 70 75 79 83 85
13 13 13 13 14 14 14 14 14 13 12 12 12 12 13 14 16 18 21 22 24 26 27 28 30 32 34 35 37 38 40 41 44 47 50 55 59 64 69 74 79 82 84 82
12 12 12 13 13 14 15 15 15 15 14 14 15 16 17 19 21 23 24 26 27 28 29 30 31 33 34 36 37 39 41 43 46 50 54 59 63 68 73 78 81 83 81 75
13 13 13 14 15 16 16 16 16 16 17 17 19 20 21 23 24 26 27 28 29 29 30 31 32 34 35 36 38 40 42 45 49 53 58 63 68 73 77 80 82 80 73 63
14 14 15 16 17 17 17 17 18 19 20 21 22 23 25 26 27 28 29 29 29 30 31 32 33 34 35 37 39 41 45 48 53 57 62 67 72 76 79 81 79 72 61 50
14 15 16 17 18 19 19 20 20 21 22 24 25 26 27 28 28 28 28 29 29 30 31 32 33 34 36 38 41 44 48 52 57 62 67 71 75 78 80 78 71 60 48 38
16 17 17 18 19 20 21 22 22 23 24 25 26 26 27 27 27 27 28 28 29 30 31 32 33 35 37 40 44 48 52 56 61 66 70 74 77 78 77 71 59 48 38 28
17 18 18 19 20 21 21 22 23 24 24 25 25 26 26 26 26 27 28 28 29 30 31 32 34 37 40 43 47 52 56 61 65 69 73 75 77 76 70 59 48 38 28 18
17 17 18 18 19 20 21 22 23 23 24 24 24 24 25 25 26 27 27 28 29 30 31 34 37 40 43 47 51 56 60 64 68 72 74 77 76 69 58 47 37 28 18 9
17 18 18 18 19 19 20 21 22 22 23 23 23 24 24 25 26 27 27 28 29 31 33 36 39 43 47 51 55 59 63 67 71 73 75 75 68 57 47 37 28 18 8 2
19 19 19 19 19 20 20 21 21 22 22 23 23 24 25 25 26 26 27 29 31 33 36 39 43 47 51 55 58 63 66 69 72 74 73 66 56 46 36 27 17 7 2 5
21 20 20 20 21 21 21 22 22 22 23 24 24 25 25 25 26 27 28 30 33 36 39 43 47 50 54 58 62 65 68 71 73 72 66 55 45 35 26 17 6 3 7 9
23 23 22 22 22 23 23 23 23 23 24 24 24 25 25 25 26 28 30 33 36 39 43 47 50 54 57 61 64 67 70 71 71 65 54 44 34 26 16 6 4 8 10 10
Wind_Direction
330 327 320 316 308 298 288 283 264 175 146 143 155 161 166 170 175 180 184 189 195 200 205 211 215 220 225 232 239 246 253 261 267 273 278 282 285 288 291 293 295 297 300 302
343 340 344 340 331 311 307 294 136 141 138 148 154 159 165 169 174 178 182 186 191 196 202 208 213 218 224 232 240 249 257 265 271 277 281 284 287 290 293 295 298 300 302 304
360 358 3 9 3 355 77 134 146 144 147 154 155 161 166 169 173 177 179 183 188 194 200 206 212 219 227 236 246 256 264 270 276 280 283 287 290 293 295 298 301 303 304 305
3 9 10 22 32 61 110 140 146 146 152 157 157 161 166 170 174 176 179 185 191 196 202 209 217 226 236 247 256 264 270 275 279 283 287 290 293 295 298 301 303 304 305 306
15 23 25 39 50 75 104 131 145 148 151 155 158 161 164 169 173 176 180 185 193 201 209 218 228 238 248 257 264 269 274 278 283 286 290 292 295 298 301 303 304 305 306 307
31 38 40 55 64 81 103 124 134 142 148 152 153 156 160 165 171 178 185 193 203 213 223 233 242 250 257 263 268 273 278 282 286 290 293 296 298 301 302 304 305 306 308 309
8 51 57 66 81 96 109 119 129 136 144 151 156 163 167 174 182 192 200 210 220 229 237 244 251 256 262 268 273 278 283 287 290 293 296 298 300 302 304 305 307 308 309 310
236 227 211 153 119 116 120 133 142 151 158 164 170 177 182 191 202 211 218 226 233 240 246 252 257 263 269 274 280 284 287 291 294 296 298 300 302 304 305 307 308 309 310 312
237 239 230 218 202 177 160 162 169 177 183 186 191 197 204 212 218 225 232 236 241 247 254 260 265 271 276 281 285 289 292 295 297 299 301 302 304 306 307 309 310 310 311 313
232 236 234 233 233 222 209 197 192 194 198 201 205 210 216 222 227 233 237 241 248 254 261 267 273 278 283 287 290 293 296 298 299 301 303 305 307 308 309 310 311 312 313 314
230 233 237 242 241 238 232 224 213 204 202 205 209 214 219 224 230 237 244 250 256 264 270 277 282 285 289 292 295 297 299 300 302 304 306 307 309 310 310 311 312 314 315 316
233 236 239 243 241 240 239 237 230 220 216 215 214 217 224 231 237 243 251 259 266 274 280 284 287 290 293 296 298 300 301 303 305 306 308 309 310 311 313 314 315 316 318 319
234 236 237 239 239 237 235 233 227 221 219 219 220 226 233 240 247 256 265 272 278 284 287 290 292 295 297 299 301 302 304 305 307 308 309 310 311 313 314 316 318 319 320 321
234 235 235 236 236 234 231 226 223 221 222 225 230 238 246 252 261 269 278 284 288 291 293 295 297 298 300 301 303 304 306 307 308 309 311 312 313 315 316 317 319 320 321 321
235 233 232 233 230 229 228 226 224 225 229 234 240 247 255 263 272 281 288 292 295 296 298 299 299 300 302 303 304 306 307 308 310 311 312 314 315 317 318 320 320 321 322 322
233 230 230 230 229 228 227 226 228 230 234 242 248 256 265 275 283 290 295 299 300 300 300 300 301 302 303 304 306 307 309 310 311 313 315 316 318 319 320 321 322 322 323 323
230 230 230 229 229 227 228 230 232 235 243 251 258 267 276 284 290 295 298 300 300 300 301 301 302 303 305 306 307 309 310 312 314 315 317 319 320 321 321 322 323 323 324 324
235 236 235 234 233 232 232 235 239 244 252 261 269 276 282 289 293 296 298 299 300 300 301 302 303 305 306 308 309 310 312 314 316 318 319 320 321 322 322 323 324 324 325 325
239 238 236 236 235 234 238 243 248 254 261 268 275 281 286 291 294 295 297 298 299 300 302 303 305 306 308 309 311 313 315 317 319 320 321 321 322 323 324 324 325 325 326 326
237 238 238 239 240 241 244 249 255 261 268 274 279 283 288 291 293 295 296 297 299 301 303 304 306 308 310 312 314 316 318 319 320 321 322 323 323 324 324 325 326 326 327 327
239 241 242 243 245 248 252 257 262 269 274 278 282 286 288 290 292 293 295 297 300 302 304 306 308 310 312 314 316 318 319 320 321 322 323 324 324 325 325 326 326 327 327 327
243 244 246 248 250 254 259 264 269 273 277 280 283 285 287 289 291 293 295 298 301 303 305 308 310 313 315 316 318 319 320 321 322 323 324 324 325 325 326 326 327 327 327 327
246 248 250 252 255 259 263 267 271 274 277 280 282 284 287 289 291 294 297 300 302 305 308 310 313 315 316 318 319 321 322 323 324 324 325 325 326 326 327 327 327 328 328 330
248 251 254 257 259 262 266 269 271 274 276 279 281 284 287 290 292 295 298 301 304 307 310 312 314 316 317 319 321 322 323 324 324 325 325 326 327 327 328 328 329 330 334 10
252 254 257 259 261 264 266 268 270 273 277 279 282 284 287 290 293 297 300 303 306 309 312 314 316 317 319 321 322 323 324 325 325 326 327 327 327 328 329 330 332 341 73 117
253 254 256 258 261 263 265 268 271 274 277 279 282 284 287 290 294 298 301 305 308 311 313 315 317 319 321 322 323 324 325 325 326 327 328 328 328 329 330 333 346 102 123 124
253 254 257 259 260 262 265 267 270 273 276 278 281 284 287 291 295 299 303 306 310 313 315 317 319 321 322 323 324 325 325 326 327 328 328 328 329 329 332 343 119 131 130 127